TimeCDT,TemperatureF,Dew PointF,Humidity,Sea Level PressureIn,VisibilityMPH,Wind Direction,Wind SpeedMPH,Gust SpeedMPH,PrecipitationIn,Events,Conditions,WindDirDegrees,DateUTC
12:52 AM,52.0,33.1,49,30.01,10.0,South,11.5,-,N/A,,Clear,170,2011-10-30 05:52:00
1:52 AM,55.0,34.0,45,30.00,10.0,South,15.0,-,N/A,,Clear,190,2011-10-30 06:52:00
2:52 AM,54.0,35.1,49,29.99,10.0,South,11.5,-,N/A,,Clear,190,2011-10-30 07:52:00
3:52 AM,53.1,35.1,50,29.98,10.0,South,8.1,-,N/A,,Clear,180,2011-10-30 08:52:00
4:52 AM,51.1,36.0,56,29.98,10.0,South,8.1,-,N/A,,Clear,170,2011-10-30 09:52:00
5:52 AM,51.1,36.0,56,29.99,10.0,South,13.8,-,N/A,,Clear,180,2011-10-30 10:52:00
6:52 AM,51.1,36.0,56,30.03,10.0,South,9.2,-,N/A,,Clear,170,2011-10-30 11:52:00
7:52 AM,50.0,36.0,59,30.04,10.0,South,10.4,-,N/A,,Clear,170,2011-10-30 12:52:00
8:52 AM,53.1,36.0,52,30.07,10.0,South,8.1,-,N/A,,Clear,190,2011-10-30 13:52:00
9:52 AM,55.0,36.0,49,30.11,10.0,SW,10.4,-,N/A,,Clear,220,2011-10-30 14:52:00
10:52 AM,57.9,37.0,46,30.12,10.0,SSW,8.1,-,N/A,,Clear,200,2011-10-30 15:52:00
11:52 AM,62.1,37.0,39,30.11,10.0,Variable,6.9,-,N/A,,Clear,0,2011-10-30 16:52:00
12:52 PM,64.9,39.0,39,30.10,10.0,Calm,Calm,-,N/A,,Clear,0,2011-10-30 17:52:00
1:52 PM,68.0,39.0,35,30.08,10.0,Variable,4.6,-,N/A,,Clear,0,2011-10-30 18:52:00
2:52 PM,70.0,39.9,33,30.06,10.0,East,4.6,-,N/A,,Clear,90,2011-10-30 19:52:00
3:52 PM,71.1,39.0,31,30.07,10.0,ENE,4.6,-,N/A,,Clear,70,2011-10-30 20:52:00
4:52 PM,71.1,39.9,32,30.08,10.0,Calm,Calm,-,N/A,,Clear,0,2011-10-30 21:52:00
5:52 PM,71.1,41.0,34,30.09,10.0,North,5.8,-,N/A,,Clear,360,2011-10-30 22:52:00
6:52 PM,64.9,43.0,45,30.11,10.0,North,6.9,-,N/A,,Clear,350,2011-10-30 23:52:00
7:52 PM,62.1,43.0,50,30.15,10.0,NNE,5.8,-,N/A,,Clear,30,2011-10-31 00:52:00
8:52 PM,60.1,43.0,53,30.16,10.0,North,4.6,-,N/A,,Clear,10,2011-10-31 01:52:00
9:52 PM,55.0,43.0,64,30.19,10.0,Calm,Calm,-,N/A,,Clear,0,2011-10-31 02:52:00
10:52 PM,51.1,43.0,74,30.21,10.0,Calm,Calm,-,N/A,,Clear,0,2011-10-31 03:52:00
11:52 PM,50.0,44.1,80,30.20,10.0,Calm,Calm,-,N/A,,Clear,0,2011-10-31 04:52:00